Miscellaneous Local Product
Issued by NWS North Platte, NE

Home | Current Version | Previous Version | Graphics & Text | Print | Product List | Glossary On
Versions: 1 2 3 4 5 6 7 8 9 10 11 12 13 14 15 16 17 18 19 20 21 22 23 24 25 26 27 28 29 30 31 32 33 34 35 36 37 38 39 40 41 42 43 44 45 46 47 48 49 50
000
AXUS43 KLBF 220010
MISLBF


WESTERN AND NORTH CENTRAL NEBRASKA HOURLY WEATHER ROUNDUP
NATIONAL WEATHER SERVICE NORTH PLATTE NE
700 PM CDT TUE OCT 21 2014

***STATIONS NOT REPORTING VARIABLES SUCH AS SKY/WEATHER OR
PRESSURE ARE PROVIDED BY THE NEBRASKA DEPARTMENT OF
ROADS...RAWS...AND APRS NETWORKS...AND ARE NOT UNDER
NATIONAL WEATHER SERVICE QUALITY CONTROL***

...OBSERVATIONS IN AND NEAR THE EASTERN PANHANDLE OF NEBRASKA...

CITY           SKY/WX    TMP DP  RH WIND       PRES   REMARKS
PINE RIDGE     CLEAR     72  47  40 S10       29.79S
CHADRON        PTCLDY    71  46  40 S13       29.78R
ALLIANCE       PTCLDY    61  46  57 S6        29.84F
SIDNEY         CLEAR     67  45  45 S7        29.87F
WHITECLAY        N/A     72  47  39 S10         N/A
RUSHVILLE        N/A     73  39  29 S16         N/A
LISCO            N/A     74  37  25 E5          N/A
BIG SPRINGS      N/A     78  54  42 S10         N/A
LEWELLEN         N/A     82  49  31 S13         N/A
$$

...OBSERVATIONS IN NORTH CENTRAL NEBRASKA...

CITY           SKY/WX    TMP DP  RH WIND       PRES   REMARKS
VALENTINE      MOCLDY    71  52  50 SE9       29.84F
THEDFORD       CLEAR     72  55  56 SE12      29.88F
AINSWORTH      PTCLDY    68  52  55 S12       29.87F
O`NEILL        CLEAR     69  37  30 SE13G18   29.93S
ORD            CLEAR     69  50  50 SE10      29.92F
BROKEN BOW     CLEAR     69  53  56 SE9       29.93R
BROWNLEE         N/A     76  53  44 S15         N/A
SPRINGVIEW       N/A     72  49  43 E7          N/A
BREWSTER         N/A     74  58  56 S12         N/A
ROSE             N/A     75  56  52 E14         N/A
NEWPORT          N/A     71  47  41 S9          N/A
SARGENT          N/A     69  52  54 CALM        N/A
COMSTOCK         N/A     72  56  56 S10         N/A
CHAMBERS         N/A     64  37  36 SE5         N/A
$$

...OBSERVATIONS IN SOUTHWEST NEBRASKA AND FAR NORTHEAST COLORADO...

CITY           SKY/WX    TMP DP  RH WIND       PRES   REMARKS
WRAY           FAIR      75  40  29 SE12      29.88S
HOLYOKE        FAIR      73  41  31 S9        29.87S
IMPERIAL       CLEAR     73  49  42 SE14      29.87F
OGALLALA       CLEAR     74  52  46 S13       29.86S
NORTH PLATTE   CLEAR     72  53  51 SE12      29.88F
MCCOOK         CLEAR     73  54  51 SE12      29.91F
LEXINGTON      CLEAR     71  57  61 SE12      29.93S
PAXTON           N/A     78  52  40 S17         N/A
SUTHERLAND       N/A     78  52  39 S12         N/A
BRADY            N/A     70  55  58 CALM        N/A
GOTHENBURG       N/A     76  53  44 S10         N/A
CALLAWAY         N/A     73  58  59 S16         N/A
$$

...SOME WEATHER OBSERVATIONS FROM AROUND THE REGION...

CITY           SKY/WX    TMP DP  RH WIND       PRES   REMARKS
DENVER         MOCLDY    69  36  29 S9        29.90S
LARAMIE        CLOUDY    53  36  52 SW10      30.03R
CHEYENNE       CLOUDY    61  37  41 W14       29.97F
SCOTTSBLUFF    MOCLDY    67  44  43 W10       29.85S
RAPID CITY     CLEAR     68  44  42 S9        29.73R
PIERRE         CLEAR     74  38  27 SE15      29.75F
WINNER         FAIR      73  38  27 S15       29.83S
SIOUX FALLS    PTCLDY    66  43  43 SE12      29.97S
OMAHA          CLEAR     63  40  42 SE10      30.03S
GRAND ISLAND   CLEAR     69  51  52 SE8       29.97S
KANSAS CITY    CLEAR     65  43  44 E7        30.08R
WICHITA        CLEAR     73  58  59 SE8       30.00S
HAYS           CLEAR     72  55  56 S10       29.97R
LIBERAL        CLEAR     72  48  43 S12       30.01S
GOODLAND       CLEAR     71  45  39 S14       29.93R
$$



USA.gov is the U.S. government's official web portal to all federal, state and local government web resources and services.